Time,TemperatureF,DewpointF,PressureIn,WindDirection,WindDirectionDegrees,WindSpeedMPH,WindSpeedGustMPH,Humidity,HourlyPrecipIn,Conditions,Clouds,dailyrainin,SoftwareType,DateUTC
2013-01-07 00:03:00,41.7,30.8,29.91,WNW,292,4.4,4.4,65,0.00,,,0.00,VWS V14.01,2013-01-06 22:03:00,
2013-01-07 00:08:00,41.7,30.8,29.91,NW,315,0.0,2.2,65,0.00,,,0.00,VWS V14.01,2013-01-06 22:08:00,
2013-01-07 00:13:00,41.5,30.6,29.92,WNW,292,3.3,5.5,65,0.00,,,0.00,VWS V14.01,2013-01-06 22:13:00,
2013-01-07 00:18:00,41.5,30.6,29.91,NW,315,2.6,2.6,65,0.00,,,0.00,VWS V14.01,2013-01-06 22:18:00,
2013-01-07 00:23:00,41.5,30.6,29.91,NW,315,7.1,7.1,65,0.00,,,0.00,VWS V14.01,2013-01-06 22:23:00,
2013-01-07 00:28:00,41.2,30.3,29.91,NNW,338,1.3,1.3,65,0.00,,,0.00,VWS V14.01,2013-01-06 22:28:00,
2013-01-07 00:33:00,41.2,30.3,29.92,NNW,338,7.1,7.1,65,0.00,,,0.00,VWS V14.01,2013-01-06 22:33:00,
2013-01-07 00:39:00,41.2,30.3,29.92,NW,315,0.2,0.2,65,0.00,,,0.00,VWS V14.01,2013-01-06 22:39:00,
2013-01-07 00:44:00,41.4,30.1,29.92,WNW,292,2.0,8.9,64,0.00,,,0.00,VWS V14.01,2013-01-06 22:44:00,
2013-01-07 00:49:00,41.5,29.4,29.92,West,270,2.4,6.0,62,0.00,,,0.00,VWS V14.01,2013-01-06 22:49:00,
2013-01-07 00:54:00,41.9,29.8,29.91,NW,315,0.2,0.2,62,0.00,,,0.00,VWS V14.01,2013-01-06 22:54:00,
2013-01-07 00:59:00,41.9,29.8,29.92,NNW,338,5.5,5.5,62,0.00,,,0.00,VWS V14.01,2013-01-06 22:59:00,
2013-01-07 01:04:00,41.9,29.4,29.91,NW,315,1.3,1.3,61,0.00,,,0.00,VWS V14.01,2013-01-06 23:04:00,
2013-01-07 01:09:00,41.7,29.2,29.91,NNW,338,11.6,11.6,61,0.00,,,0.00,VWS V14.01,2013-01-06 23:09:00,
2013-01-07 01:14:00,41.9,29.8,29.91,North,0,0.6,8.2,62,0.00,,,0.00,VWS V14.01,2013-01-06 23:14:00,
2013-01-07 01:19:00,41.9,29.8,29.91,NW,315,5.5,5.5,62,0.00,,,0.00,VWS V14.01,2013-01-06 23:19:00,
2013-01-07 01:24:00,41.5,29.0,29.91,WNW,292,6.2,6.2,61,0.00,,,0.00,VWS V14.01,2013-01-06 23:24:00,
2013-01-07 01:29:00,41.7,29.2,29.91,NW,315,2.2,2.2,61,0.00,,,0.00,VWS V14.01,2013-01-06 23:29:00,
2013-01-07 01:34:00,41.5,29.0,29.91,WNW,292,0.0,0.0,61,0.00,,,0.00,VWS V14.01,2013-01-06 23:34:00,
2013-01-07 01:39:00,41.2,29.1,29.91,WNW,292,0.0,0.0,62,0.00,,,0.00,VWS V14.01,2013-01-06 23:39:00,
2013-01-07 01:44:00,41.0,29.4,29.92,West,270,3.1,6.2,63,0.00,,,0.00,VWS V14.01,2013-01-06 23:44:00,
2013-01-07 01:49:00,41.0,29.7,29.92,West,270,2.9,2.9,64,0.00,,,0.00,VWS V14.01,2013-01-06 23:49:00,
2013-01-07 01:54:00,41.0,29.7,29.92,West,270,3.5,3.5,64,0.00,,,0.00,VWS V14.01,2013-01-06 23:54:00,
2013-01-07 01:59:00,41.0,29.7,29.92,WNW,292,0.0,0.0,64,0.00,,,0.00,VWS V14.01,2013-01-06 23:59:00,
2013-01-07 02:04:00,40.6,29.4,29.92,West,270,0.0,0.0,64,0.00,,,0.00,VWS V14.01,2013-01-07 00:04:00,
2013-01-07 02:09:00,40.5,29.6,29.93,NNW,338,0.0,3.1,65,0.00,,,0.00,VWS V14.01,2013-01-07 00:09:00,
2013-01-07 02:14:00,40.3,29.5,29.92,West,270,0.6,0.6,65,0.00,,,0.00,VWS V14.01,2013-01-07 00:14:00,
2013-01-07 02:20:00,40.3,29.8,29.92,West,270,1.7,1.7,66,0.00,,,0.00,VWS V14.01,2013-01-07 00:20:00,
2013-01-07 02:25:00,40.1,29.6,29.92,West,270,0.0,0.0,66,0.00,,,0.00,VWS V14.01,2013-01-07 00:25:00,
2013-01-07 02:30:00,40.1,30.0,29.92,WNW,292,0.2,0.2,67,0.00,,,0.00,VWS V14.01,2013-01-07 00:30:00,
2013-01-07 02:35:00,39.9,29.8,29.91,WNW,292,0.0,0.0,67,0.00,,,0.00,VWS V14.01,2013-01-07 00:35:00,
2013-01-07 02:40:00,39.9,29.8,29.91,WNW,292,0.0,0.0,67,0.00,,,0.00,VWS V14.01,2013-01-07 00:40:00,
2013-01-07 02:45:00,40.1,30.0,29.91,NNW,338,4.2,4.2,67,0.00,,,0.00,VWS V14.01,2013-01-07 00:45:00,
2013-01-07 02:50:00,40.1,30.0,29.91,West,270,6.7,7.1,67,0.00,,,0.00,VWS V14.01,2013-01-07 00:50:00,
2013-01-07 02:55:00,40.3,29.8,29.91,WNW,292,3.3,8.5,66,0.00,,,0.00,VWS V14.01,2013-01-07 00:55:00,
2013-01-07 03:00:00,40.3,29.8,29.91,West,270,4.4,6.9,66,0.00,,,0.00,VWS V14.01,2013-01-07 01:00:00,
2013-01-07 03:05:00,40.3,29.5,29.91,West,270,5.8,5.8,65,0.00,,,0.00,VWS V14.01,2013-01-07 01:05:00,
2013-01-07 03:10:00,40.5,29.3,29.91,West,270,0.4,8.2,64,0.00,,,0.00,VWS V14.01,2013-01-07 01:10:00,
2013-01-07 03:16:00,40.6,29.4,29.91,West,270,3.3,3.3,64,0.00,,,0.00,VWS V14.01,2013-01-07 01:16:00,
2013-01-07 03:21:00,40.5,29.3,29.91,WNW,292,9.6,9.6,64,0.00,,,0.00,VWS V14.01,2013-01-07 01:21:00,
2013-01-07 03:26:00,40.3,29.1,29.91,West,270,4.9,8.9,64,0.00,,,0.00,VWS V14.01,2013-01-07 01:26:00,
2013-01-07 03:31:00,40.1,29.3,29.92,NW,315,2.0,2.0,65,0.00,,,0.00,VWS V14.01,2013-01-07 01:31:00,
2013-01-07 03:36:00,39.7,29.2,29.92,WNW,292,6.7,6.7,66,0.00,,,0.00,VWS V14.01,2013-01-07 01:36:00,
2013-01-07 03:41:00,39.7,29.2,29.92,WNW,292,9.1,9.1,66,0.00,,,0.00,VWS V14.01,2013-01-07 01:41:00,
2013-01-07 03:46:00,39.7,28.9,29.91,WNW,292,4.9,9.3,65,0.00,,,0.00,VWS V14.01,2013-01-07 01:46:00,
2013-01-07 03:51:00,39.7,28.9,29.91,NW,315,3.3,8.7,65,0.00,,,0.00,VWS V14.01,2013-01-07 01:51:00,
2013-01-07 03:56:00,39.6,28.8,29.91,NW,315,10.2,10.2,65,0.00,,,0.00,VWS V14.01,2013-01-07 01:56:00,
2013-01-07 04:01:00,39.6,28.8,29.91,NNW,338,2.9,7.1,65,0.00,,,0.00,VWS V14.01,2013-01-07 02:01:00,
2013-01-07 04:06:00,39.4,28.2,29.91,WNW,292,4.6,8.2,64,0.00,,,0.00,VWS V14.01,2013-01-07 02:06:00,
2013-01-07 04:11:00,39.4,28.2,29.90,WNW,292,5.3,6.4,64,0.00,,,0.00,VWS V14.01,2013-01-07 02:11:00,
2013-01-07 04:16:00,39.2,28.0,29.90,WNW,292,3.3,7.6,64,0.00,,,0.00,VWS V14.01,2013-01-07 02:16:00,
2013-01-07 04:21:00,39.2,28.0,29.90,NW,315,0.0,0.0,64,0.00,,,0.00,VWS V14.01,2013-01-07 02:21:00,
2013-01-07 04:26:00,39.0,27.8,29.90,WNW,292,3.3,3.5,64,0.00,,,0.00,VWS V14.01,2013-01-07 02:26:00,
2013-01-07 04:31:00,38.8,27.6,29.90,WNW,292,0.0,0.0,64,0.00,,,0.00,VWS V14.01,2013-01-07 02:31:00,
2013-01-07 04:36:00,38.7,27.9,29.90,North,0,0.0,0.0,65,0.00,,,0.00,VWS V14.01,2013-01-07 02:36:00,
2013-01-07 04:41:00,38.5,27.7,29.90,NW,315,0.0,0.0,65,0.00,,,0.00,VWS V14.01,2013-01-07 02:41:00,
2013-01-07 04:47:00,38.5,27.7,29.89,WNW,292,0.4,0.4,65,0.00,,,0.00,VWS V14.01,2013-01-07 02:47:00,
2013-01-07 04:52:00,38.5,27.7,29.89,NW,315,0.0,0.0,65,0.00,,,0.00,VWS V14.01,2013-01-07 02:52:00,
2013-01-07 04:57:00,38.5,27.7,29.89,NW,315,0.0,0.0,65,0.00,,,0.00,VWS V14.01,2013-01-07 02:57:00,
2013-01-07 05:02:00,38.5,27.7,29.89,NW,315,0.0,0.0,65,0.00,,,0.00,VWS V14.01,2013-01-07 03:02:00,
2013-01-07 05:07:00,38.3,27.5,29.89,NW,315,0.0,0.0,65,0.00,,,0.00,VWS V14.01,2013-01-07 03:07:00,
2013-01-07 05:12:00,38.3,27.5,29.89,WNW,292,0.0,0.0,65,0.00,,,0.00,VWS V14.01,2013-01-07 03:12:00,
2013-01-07 05:17:00,38.3,27.5,29.89,WNW,292,0.0,0.0,65,0.00,,,0.00,VWS V14.01,2013-01-07 03:17:00,
2013-01-07 05:22:00,38.3,27.5,29.88,WNW,292,0.0,0.0,65,0.00,,,0.00,VWS V14.01,2013-01-07 03:22:00,
2013-01-07 05:27:00,38.3,27.5,29.88,WNW,292,0.0,0.0,65,0.00,,,0.00,VWS V14.01,2013-01-07 03:27:00,
2013-01-07 05:32:00,38.3,27.5,29.88,WNW,292,0.0,0.0,65,0.00,,,0.00,VWS V14.01,2013-01-07 03:32:00,
2013-01-07 05:37:00,38.1,27.4,29.89,WNW,292,0.0,0.0,65,0.00,,,0.00,VWS V14.01,2013-01-07 03:37:00,
2013-01-07 05:42:00,37.9,27.2,29.89,WNW,292,3.1,3.1,65,0.00,,,0.00,VWS V14.01,2013-01-07 03:42:00,
2013-01-07 05:48:00,37.9,27.2,29.88,WNW,292,0.0,0.0,65,0.00,,,0.00,VWS V14.01,2013-01-07 03:48:00,
2013-01-07 05:53:00,37.6,27.2,29.89,WNW,292,0.0,0.0,66,0.00,,,0.00,VWS V14.01,2013-01-07 03:53:00,
2013-01-07 05:58:00,37.9,27.9,29.89,WNW,292,0.0,0.0,67,0.00,,,0.00,VWS V14.01,2013-01-07 03:58:00,
2013-01-07 06:03:00,37.9,27.9,29.89,WNW,292,0.0,0.0,67,0.00,,,0.00,VWS V14.01,2013-01-07 04:03:00,
2013-01-07 06:08:00,37.9,27.9,29.89,WNW,292,0.0,0.0,67,0.00,,,0.00,VWS V14.01,2013-01-07 04:08:00,
2013-01-07 06:13:00,38.1,28.1,29.89,WNW,292,0.0,0.0,67,0.00,,,0.00,VWS V14.01,2013-01-07 04:13:00,
2013-01-07 06:18:00,38.5,27.4,29.89,NNW,338,2.6,2.6,64,0.00,,,0.00,VWS V14.01,2013-01-07 04:18:00,
2013-01-07 06:23:00,38.7,26.8,29.89,WNW,292,0.0,0.0,62,0.00,,,0.00,VWS V14.01,2013-01-07 04:23:00,
2013-01-07 06:28:00,39.6,25.2,29.89,NNW,338,4.9,4.9,56,0.00,,,0.00,VWS V14.01,2013-01-07 04:28:00,
2013-01-07 06:33:00,40.1,24.8,29.89,WNW,292,8.2,13.6,54,0.00,,,0.00,VWS V14.01,2013-01-07 04:33:00,
2013-01-07 06:38:00,40.1,25.2,29.89,NNW,338,9.1,9.1,55,0.00,,,0.00,VWS V14.01,2013-01-07 04:38:00,
2013-01-07 06:43:00,40.1,25.2,29.90,NNW,338,11.4,11.4,55,0.00,,,0.00,VWS V14.01,2013-01-07 04:43:00,
2013-01-07 06:48:00,40.1,25.2,23.96,NNW,338,10.0,10.0,55,0.00,,,0.00,VWS V14.01,2013-01-07 04:48:00,
2013-01-07 06:53:00,40.1,25.6,29.90,NNW,338,4.9,5.5,56,0.00,,,0.00,VWS V14.01,2013-01-07 04:53:00,
2013-01-07 06:58:00,39.7,26.1,29.90,NW,315,0.0,1.5,58,0.00,,,0.00,VWS V14.01,2013-01-07 04:58:00,
2013-01-07 07:00:00,39.6,26.0,29.90,WNW,292,3.5,3.5,58,0.00,,,0.00,VWS V14.01,2013-01-07 05:00:00,
2013-01-07 07:02:00,39.6,26.0,29.90,WNW,292,3.5,3.5,58,0.00,,,0.00,VWS V14.01,2013-01-07 05:02:00,
2013-01-07 07:03:00,39.4,25.8,29.90,WNW,292,2.0,2.0,58,0.00,,,0.00,VWS V14.01,2013-01-07 05:03:00,
2013-01-07 07:08:00,39.6,25.6,29.91,NNW,338,0.0,0.0,57,0.00,,,0.00,VWS V14.01,2013-01-07 05:08:00,
2013-01-07 07:14:00,39.4,25.8,29.91,WNW,292,2.4,3.8,58,0.00,,,0.00,VWS V14.01,2013-01-07 05:14:00,
2013-01-07 07:19:00,39.4,25.8,29.91,West,270,4.6,4.6,58,0.00,,,0.00,VWS V14.01,2013-01-07 05:19:00,
2013-01-07 07:24:00,39.4,26.2,29.90,WNW,292,0.0,0.0,59,0.00,,,0.00,VWS V14.01,2013-01-07 05:24:00,
2013-01-07 07:29:00,39.2,26.0,29.91,NNW,338,2.2,2.9,59,0.00,,,0.00,VWS V14.01,2013-01-07 05:29:00,
2013-01-07 07:34:00,39.2,26.0,29.91,West,270,9.6,12.5,59,0.00,,,0.00,VWS V14.01,2013-01-07 05:34:00,
2013-01-07 07:39:00,39.2,26.0,29.92,WNW,292,3.8,3.8,59,0.00,,,0.00,VWS V14.01,2013-01-07 05:39:00,
2013-01-07 07:44:00,39.2,26.0,29.92,WNW,292,0.0,0.0,59,0.00,,,0.00,VWS V14.01,2013-01-07 05:44:00,
2013-01-07 07:49:00,39.4,25.8,29.92,West,270,4.4,4.4,58,0.00,,,0.00,VWS V14.01,2013-01-07 05:49:00,
2013-01-07 07:54:00,39.7,25.3,29.92,NW,315,14.3,14.3,56,0.00,,,0.00,VWS V14.01,2013-01-07 05:54:00,
2013-01-07 07:59:00,40.1,25.2,29.92,WNW,292,4.4,6.4,55,0.00,,,0.00,VWS V14.01,2013-01-07 05:59:00,
2013-01-07 08:04:00,40.1,25.2,29.92,West,270,7.8,7.8,55,0.00,,,0.00,VWS V14.01,2013-01-07 06:04:00,
2013-01-07 08:09:00,40.6,25.7,29.92,NW,315,4.9,4.9,55,0.00,,,0.00,VWS V14.01,2013-01-07 06:09:00,
2013-01-07 08:14:00,40.8,25.4,29.91,WNW,292,1.1,1.1,54,0.00,,,0.00,VWS V14.01,2013-01-07 06:14:00,
2013-01-07 08:19:00,41.0,25.2,29.91,WNW,292,9.1,9.1,53,0.00,,,0.00,VWS V14.01,2013-01-07 06:19:00,
2013-01-07 08:24:00,41.4,25.1,29.91,West,270,2.2,2.2,52,0.00,,,0.00,VWS V14.01,2013-01-07 06:24:00,
2013-01-07 08:29:00,41.5,25.2,29.92,WNW,292,4.6,7.6,52,0.00,,,0.00,VWS V14.01,2013-01-07 06:29:00,
2013-01-07 08:34:00,41.7,25.4,29.92,NNW,338,10.2,10.2,52,0.00,,,0.00,VWS V14.01,2013-01-07 06:34:00,
2013-01-07 08:39:00,41.9,25.1,29.92,NNW,338,7.8,8.5,51,0.00,,,0.00,VWS V14.01,2013-01-07 06:39:00,
2013-01-07 08:44:00,42.1,25.3,29.92,NNW,338,5.5,5.5,51,0.00,,,0.00,VWS V14.01,2013-01-07 06:44:00,
2013-01-07 08:50:00,42.3,25.4,29.92,NNW,338,6.2,6.2,51,0.00,,,0.00,VWS V14.01,2013-01-07 06:50:00,
2013-01-07 08:55:00,42.4,25.5,29.92,North,0,0.0,0.0,51,0.00,,,0.00,VWS V14.01,2013-01-07 06:55:00,
2013-01-07 09:00:00,42.8,25.4,29.92,NW,315,4.6,4.6,50,0.00,,,0.00,VWS V14.01,2013-01-07 07:00:00,
2013-01-07 09:05:00,43.2,25.3,29.92,WNW,292,1.5,1.5,49,0.00,,,0.00,VWS V14.01,2013-01-07 07:05:00,
2013-01-07 09:10:00,43.3,25.4,29.92,WNW,292,0.0,0.0,49,0.00,,,0.00,VWS V14.01,2013-01-07 07:10:00,
2013-01-07 09:15:00,43.7,25.8,29.92,NNW,338,0.0,3.8,49,0.00,,,0.00,VWS V14.01,2013-01-07 07:15:00,
2013-01-07 09:20:00,43.7,25.3,29.92,NNW,338,0.8,6.2,48,0.00,,,0.00,VWS V14.01,2013-01-07 07:20:00,
2013-01-07 09:25:00,43.7,25.3,29.92,NW,315,3.1,7.1,48,0.00,,,0.00,VWS V14.01,2013-01-07 07:25:00,
2013-01-07 09:30:00,44.1,25.6,29.92,NW,315,7.3,7.3,48,0.00,,,0.00,VWS V14.01,2013-01-07 07:30:00,
2013-01-07 09:35:00,44.6,25.1,29.92,NW,315,2.9,2.9,46,0.00,,,0.00,VWS V14.01,2013-01-07 07:35:00,
2013-01-07 09:40:00,44.8,25.8,29.92,WNW,292,0.0,0.0,47,0.00,,,0.00,VWS V14.01,2013-01-07 07:40:00,
2013-01-07 09:45:00,45.1,25.0,29.92,NNW,338,2.6,2.6,45,0.00,,,0.00,VWS V14.01,2013-01-07 07:45:00,
2013-01-07 09:50:00,45.3,24.6,29.92,WNW,292,3.5,5.1,44,0.00,,,0.00,VWS V14.01,2013-01-07 07:50:00,
2013-01-07 09:55:00,45.3,25.2,29.93,WNW,292,5.1,5.5,45,0.00,,,0.00,VWS V14.01,2013-01-07 07:55:00,
2013-01-07 10:00:00,45.3,24.6,29.92,West,270,1.1,1.1,44,0.00,,,0.00,VWS V14.01,2013-01-07 08:00:00,
2013-01-07 10:05:00,46.0,25.3,29.93,West,270,0.0,2.4,44,0.00,,,0.00,VWS V14.01,2013-01-07 08:05:00,
2013-01-07 10:10:00,46.4,25.6,29.93,West,270,2.0,9.1,44,0.00,,,0.00,VWS V14.01,2013-01-07 08:10:00,
2013-01-07 10:16:00,46.6,25.3,29.93,West,270,5.3,5.3,43,0.00,,,0.00,VWS V14.01,2013-01-07 08:16:00,
2013-01-07 10:21:00,45.7,25.0,29.93,WNW,292,0.4,0.4,44,0.00,,,0.00,VWS V14.01,2013-01-07 08:21:00,
2013-01-07 10:26:00,45.3,25.2,29.93,West,270,3.1,3.1,45,0.00,,,0.00,VWS V14.01,2013-01-07 08:26:00,
2013-01-07 10:31:00,45.1,25.0,29.93,West,270,0.0,0.0,45,0.00,,,0.00,VWS V14.01,2013-01-07 08:31:00,
2013-01-07 10:36:00,44.8,24.7,29.93,West,270,4.4,6.7,45,0.00,,,0.00,VWS V14.01,2013-01-07 08:36:00,
2013-01-07 10:41:00,45.1,25.0,29.93,West,270,0.0,0.0,45,0.00,,,0.00,VWS V14.01,2013-01-07 08:41:00,
2013-01-07 10:46:00,45.1,25.5,29.93,West,270,0.0,0.0,46,0.00,,,0.00,VWS V14.01,2013-01-07 08:46:00,
2013-01-07 10:51:00,45.1,25.5,29.93,West,270,1.5,1.5,46,0.00,,,0.00,VWS V14.01,2013-01-07 08:51:00,
2013-01-07 10:56:00,45.1,25.0,29.93,West,270,0.6,4.9,45,0.00,,,0.00,VWS V14.01,2013-01-07 08:56:00,
2013-01-07 11:01:00,45.1,25.0,29.93,West,270,2.2,2.2,45,0.00,,,0.00,VWS V14.01,2013-01-07 09:01:00,
2013-01-07 11:06:00,44.8,25.3,29.93,WNW,292,0.0,0.0,46,0.00,,,0.00,VWS V14.01,2013-01-07 09:06:00,
2013-01-07 11:12:00,44.8,25.8,29.92,NW,315,4.6,4.6,47,0.00,,,0.00,VWS V14.01,2013-01-07 09:12:00,
2013-01-07 11:17:00,46.0,25.8,29.92,NW,315,0.0,0.0,45,0.00,,,0.00,VWS V14.01,2013-01-07 09:17:00,
2013-01-07 11:22:00,47.5,25.5,29.92,West,270,0.8,0.8,42,0.00,,,0.00,VWS V14.01,2013-01-07 09:22:00,
2013-01-07 11:27:00,47.7,24.5,29.91,NW,315,0.0,2.6,40,0.00,,,0.00,VWS V14.01,2013-01-07 09:27:00,
2013-01-07 11:32:00,47.3,24.8,29.91,NW,315,2.6,8.0,41,0.00,,,0.00,VWS V14.01,2013-01-07 09:32:00,
2013-01-07 11:37:00,46.9,25.0,29.91,NNW,338,2.4,2.4,42,0.00,,,0.00,VWS V14.01,2013-01-07 09:37:00,
2013-01-07 11:42:00,47.1,26.3,29.91,WNW,292,0.0,0.0,44,0.00,,,0.00,VWS V14.01,2013-01-07 09:42:00,
2013-01-07 11:47:00,47.5,25.5,29.91,NW,315,8.9,8.9,42,0.00,,,0.00,VWS V14.01,2013-01-07 09:47:00,
2013-01-07 11:52:00,47.5,25.0,29.91,WNW,292,7.3,7.3,41,0.00,,,0.00,VWS V14.01,2013-01-07 09:52:00,
2013-01-07 11:57:00,47.8,24.6,29.91,NNW,338,1.1,1.1,40,0.00,,,0.00,VWS V14.01,2013-01-07 09:57:00,
2013-01-07 12:02:00,49.1,25.8,29.91,West,270,0.0,0.0,40,0.00,,,0.00,VWS V14.01,2013-01-07 10:02:00,
2013-01-07 12:07:00,49.6,25.6,29.90,West,270,0.0,0.0,39,0.00,,,0.00,VWS V14.01,2013-01-07 10:07:00,
2013-01-07 12:12:00,49.8,25.8,29.90,NW,315,4.9,4.9,39,0.00,,,0.00,VWS V14.01,2013-01-07 10:12:00,
2013-01-07 12:17:00,49.5,26.2,29.90,NW,315,0.0,2.9,40,0.00,,,0.00,VWS V14.01,2013-01-07 10:17:00,
2013-01-07 12:22:00,49.3,25.4,29.90,NNW,338,2.9,8.5,39,0.00,,,0.00,VWS V14.01,2013-01-07 10:22:00,
2013-01-07 12:27:00,49.5,25.5,29.90,North,0,3.3,6.4,39,0.00,,,0.00,VWS V14.01,2013-01-07 10:27:00,
2013-01-07 12:32:00,50.0,26.0,29.89,NNW,338,10.9,10.9,39,0.00,,,0.00,VWS V14.01,2013-01-07 10:32:00,
2013-01-07 12:37:00,50.2,26.2,29.89,WNW,292,0.0,0.0,39,0.00,,,0.00,VWS V14.01,2013-01-07 10:37:00,
2013-01-07 12:43:00,50.9,25.5,29.89,NW,315,4.2,4.2,37,0.00,,,0.00,VWS V14.01,2013-01-07 10:43:00,
2013-01-07 12:48:00,50.2,25.5,29.89,NW,315,8.5,8.5,38,0.00,,,0.00,VWS V14.01,2013-01-07 10:48:00,
2013-01-07 12:53:00,50.2,26.2,29.89,West,270,0.6,0.6,39,0.00,,,0.00,VWS V14.01,2013-01-07 10:53:00,
2013-01-07 12:58:00,51.3,26.5,29.89,WNW,292,0.0,0.0,38,0.00,,,0.00,VWS V14.01,2013-01-07 10:58:00,
2013-01-07 13:03:00,52.0,25.9,29.89,WSW,248,2.0,2.0,36,0.00,,,0.00,VWS V14.01,2013-01-07 11:03:00,
2013-01-07 13:08:00,52.3,26.1,29.89,West,270,0.0,0.0,36,0.00,,,0.00,VWS V14.01,2013-01-07 11:08:00,
2013-01-07 13:13:00,52.0,25.2,29.89,WSW,248,8.0,8.0,35,0.00,,,0.00,VWS V14.01,2013-01-07 11:13:00,
2013-01-07 13:18:00,52.2,25.4,29.89,WNW,292,3.1,3.1,35,0.00,,,0.00,VWS V14.01,2013-01-07 11:18:00,
2013-01-07 13:23:00,52.3,25.5,29.89,West,270,0.0,0.0,35,0.00,,,0.00,VWS V14.01,2013-01-07 11:23:00,
2013-01-07 13:28:00,52.3,25.5,29.89,WNW,292,0.0,0.0,35,0.00,,,0.00,VWS V14.01,2013-01-07 11:28:00,
2013-01-07 13:33:00,51.4,24.6,29.89,West,270,2.9,8.0,35,0.00,,,0.00,VWS V14.01,2013-01-07 11:33:00,
2013-01-07 13:38:00,51.4,26.0,29.89,West,270,4.9,4.9,37,0.00,,,0.00,VWS V14.01,2013-01-07 11:38:00,
2013-01-07 13:43:00,51.4,26.0,29.89,West,270,0.0,0.0,37,0.00,,,0.00,VWS V14.01,2013-01-07 11:43:00,
2013-01-07 13:48:00,51.4,27.9,29.89,North,0,0.0,0.0,40,0.00,,,0.00,VWS V14.01,2013-01-07 11:48:00,
2013-01-07 13:53:00,51.1,26.4,29.88,WNW,292,0.0,0.0,38,0.00,,,0.00,VWS V14.01,2013-01-07 11:53:00,
2013-01-07 13:58:00,50.7,27.2,29.88,NW,315,6.0,6.0,40,0.00,,,0.00,VWS V14.01,2013-01-07 11:58:00,
2013-01-07 14:04:00,50.5,27.1,29.88,WNW,292,0.2,6.9,40,0.00,,,0.00,VWS V14.01,2013-01-07 12:04:00,
2013-01-07 14:09:00,50.5,27.1,29.88,NW,315,4.0,4.0,40,0.00,,,0.00,VWS V14.01,2013-01-07 12:09:00,
2013-01-07 14:14:00,50.5,28.2,29.88,WNW,292,0.0,0.0,42,0.00,,,0.00,VWS V14.01,2013-01-07 12:14:00,
2013-01-07 14:19:00,50.9,28.6,29.88,NW,315,0.0,0.0,42,0.00,,,0.00,VWS V14.01,2013-01-07 12:19:00,
2013-01-07 14:24:00,50.9,28.6,29.88,North,0,1.5,1.5,42,0.00,,,0.00,VWS V14.01,2013-01-07 12:24:00,
2013-01-07 14:29:00,50.9,28.0,29.88,NNW,338,2.9,2.9,41,0.00,,,0.00,VWS V14.01,2013-01-07 12:29:00,
2013-01-07 14:34:00,50.5,26.5,29.89,NNW,338,7.3,8.2,39,0.00,,,0.00,VWS V14.01,2013-01-07 12:34:00,
2013-01-07 14:39:00,50.4,27.6,29.88,NNW,338,0.0,0.0,41,0.00,,,0.00,VWS V14.01,2013-01-07 12:39:00,
2013-01-07 14:44:00,50.4,27.6,29.88,NNW,338,0.0,0.0,41,0.00,,,0.00,VWS V14.01,2013-01-07 12:44:00,
2013-01-07 14:49:00,50.5,26.5,29.89,WNW,292,4.9,4.9,39,0.00,,,0.00,VWS V14.01,2013-01-07 12:49:00,
2013-01-07 14:54:00,50.7,26.6,29.89,NNW,338,0.0,0.0,39,0.00,,,0.00,VWS V14.01,2013-01-07 12:54:00,
2013-01-07 14:59:00,50.4,26.4,29.89,NW,315,1.7,3.3,39,0.00,,,0.00,VWS V14.01,2013-01-07 12:59:00,
2013-01-07 15:04:00,50.2,26.2,29.89,North,0,0.0,0.0,39,0.00,,,0.00,VWS V14.01,2013-01-07 13:04:00,
2013-01-07 15:10:00,50.0,26.0,29.89,North,0,0.0,0.0,39,0.00,,,0.00,VWS V14.01,2013-01-07 13:10:00,
2013-01-07 15:15:00,49.6,25.6,29.89,North,0,10.5,10.5,39,0.00,,,0.00,VWS V14.01,2013-01-07 13:15:00,
2013-01-07 15:20:00,49.3,26.0,29.89,NNW,338,8.5,8.5,40,0.00,,,0.00,VWS V14.01,2013-01-07 13:20:00,
2013-01-07 15:25:00,49.5,26.2,29.90,North,0,8.0,8.0,40,0.00,,,0.00,VWS V14.01,2013-01-07 13:25:00,
2013-01-07 15:30:00,49.8,26.4,29.90,NNW,338,11.6,11.6,40,0.00,,,0.00,VWS V14.01,2013-01-07 13:30:00,
2013-01-07 15:35:00,50.0,26.6,29.90,NW,315,14.0,14.0,40,0.00,,,0.00,VWS V14.01,2013-01-07 13:35:00,
2013-01-07 15:40:00,50.0,26.6,29.90,NNW,338,13.1,13.1,40,0.00,,,0.00,VWS V14.01,2013-01-07 13:40:00,
2013-01-07 15:45:00,49.8,26.4,29.90,NW,315,0.2,0.2,40,0.00,,,0.00,VWS V14.01,2013-01-07 13:45:00,
2013-01-07 15:50:00,50.0,27.2,29.91,NW,315,4.6,9.6,41,0.00,,,0.00,VWS V14.01,2013-01-07 13:50:00,
2013-01-07 15:55:00,49.5,27.9,29.91,NNW,338,1.7,1.7,43,0.00,,,0.00,VWS V14.01,2013-01-07 13:55:00,
2013-01-07 16:00:00,49.1,28.1,29.91,North,0,0.0,1.1,44,0.00,,,0.00,VWS V14.01,2013-01-07 14:00:00,
2013-01-07 16:05:00,49.1,28.7,29.91,North,0,0.0,0.0,45,0.00,,,0.00,VWS V14.01,2013-01-07 14:05:00,
2013-01-07 16:10:00,48.9,27.9,29.91,NNW,338,0.0,0.0,44,0.00,,,0.00,VWS V14.01,2013-01-07 14:10:00,
2013-01-07 16:15:00,49.3,28.8,29.91,WNW,292,6.7,6.7,45,0.00,,,0.00,VWS V14.01,2013-01-07 14:15:00,
2013-01-07 16:20:00,49.1,29.7,29.91,NW,315,2.6,2.6,47,0.00,,,0.00,VWS V14.01,2013-01-07 14:20:00,
2013-01-07 16:25:00,49.1,28.7,29.91,NNW,338,13.4,13.4,45,0.00,,,0.00,VWS V14.01,2013-01-07 14:25:00,
2013-01-07 16:30:00,48.7,28.8,29.91,NNW,338,0.0,0.0,46,0.00,,,0.00,VWS V14.01,2013-01-07 14:30:00,
2013-01-07 16:35:00,48.6,28.7,29.91,NNW,338,0.0,0.0,46,0.00,,,0.00,VWS V14.01,2013-01-07 14:35:00,
2013-01-07 16:41:00,48.4,28.5,29.91,NW,315,0.0,0.0,46,0.00,,,0.00,VWS V14.01,2013-01-07 14:41:00,
2013-01-07 16:46:00,48.2,28.9,29.91,WNW,292,0.0,0.0,47,0.00,,,0.00,VWS V14.01,2013-01-07 14:46:00,
2013-01-07 16:51:00,47.8,29.0,29.91,North,0,0.0,0.0,48,0.00,,,0.00,VWS V14.01,2013-01-07 14:51:00,
2013-01-07 16:56:00,47.5,29.8,29.91,NW,315,4.0,5.5,50,0.00,,,0.00,VWS V14.01,2013-01-07 14:56:00,
2013-01-07 17:01:00,47.3,30.1,29.92,North,0,2.0,2.0,51,0.00,,,0.00,VWS V14.01,2013-01-07 15:01:00,
2013-01-07 17:06:00,47.1,30.4,29.92,North,0,0.0,0.0,52,0.00,,,0.00,VWS V14.01,2013-01-07 15:06:00,
2013-01-07 17:11:00,46.8,30.5,29.92,NNW,338,9.6,9.6,53,0.00,,,0.00,VWS V14.01,2013-01-07 15:11:00,
2013-01-07 17:16:00,46.6,30.4,29.92,North,0,4.6,4.6,53,0.00,,,0.00,VWS V14.01,2013-01-07 15:16:00,
2013-01-07 17:21:00,46.4,30.2,29.92,North,0,0.0,0.0,53,0.00,,,0.00,VWS V14.01,2013-01-07 15:21:00,
2013-01-07 17:26:00,46.2,29.5,29.93,NNW,338,2.0,2.0,52,0.00,,,0.00,VWS V14.01,2013-01-07 15:26:00,
2013-01-07 17:31:00,46.0,29.3,29.92,NNW,338,0.0,0.0,52,0.00,,,0.00,VWS V14.01,2013-01-07 15:31:00,
2013-01-07 17:36:00,45.7,29.1,29.92,NNE,22,8.0,8.0,52,0.00,,,0.00,VWS V14.01,2013-01-07 15:36:00,
2013-01-07 17:41:00,45.7,29.1,29.93,North,0,0.0,0.0,52,0.00,,,0.00,VWS V14.01,2013-01-07 15:41:00,
2013-01-07 17:46:00,45.7,29.5,29.93,North,0,1.5,1.5,53,0.00,,,0.00,VWS V14.01,2013-01-07 15:46:00,
2013-01-07 17:51:00,45.7,29.5,29.93,NNW,338,3.1,3.1,53,0.00,,,0.00,VWS V14.01,2013-01-07 15:51:00,
2013-01-07 17:56:00,45.7,30.0,29.94,North,0,0.6,0.6,54,0.00,,,0.00,VWS V14.01,2013-01-07 15:56:00,
2013-01-07 18:01:00,45.7,29.5,29.93,North,0,6.0,9.1,53,0.00,,,0.00,VWS V14.01,2013-01-07 16:01:00,
2013-01-07 18:06:00,45.3,29.6,29.93,NNE,22,8.7,11.8,54,0.00,,,0.00,VWS V14.01,2013-01-07 16:06:00,
2013-01-07 18:11:00,45.3,29.6,29.93,NNW,338,0.0,3.3,54,0.00,,,0.00,VWS V14.01,2013-01-07 16:11:00,
2013-01-07 18:16:00,45.1,29.4,29.94,NNW,338,0.0,0.0,54,0.00,,,0.00,VWS V14.01,2013-01-07 16:16:00,
2013-01-07 18:21:00,45.1,29.4,29.93,West,270,1.3,1.3,54,0.00,,,0.00,VWS V14.01,2013-01-07 16:21:00,
2013-01-07 18:26:00,45.1,28.0,29.94,NNW,338,8.7,12.7,51,0.00,,,0.00,VWS V14.01,2013-01-07 16:26:00,
2013-01-07 18:31:00,45.3,28.2,29.94,NNW,338,0.0,0.0,51,0.00,,,0.00,VWS V14.01,2013-01-07 16:31:00,
2013-01-07 18:36:00,45.3,27.2,29.94,North,0,6.7,8.5,49,0.00,,,0.00,VWS V14.01,2013-01-07 16:36:00,
2013-01-07 18:42:00,45.3,27.2,29.94,NW,315,6.0,11.1,49,0.00,,,0.00,VWS V14.01,2013-01-07 16:42:00,
2013-01-07 18:47:00,45.1,27.1,29.94,NNE,22,16.1,16.1,49,0.00,,,0.00,VWS V14.01,2013-01-07 16:47:00,
2013-01-07 18:52:00,45.1,28.0,29.93,North,0,11.1,14.3,51,0.00,,,0.00,VWS V14.01,2013-01-07 16:52:00,
2013-01-07 18:57:00,45.1,27.5,29.94,North,0,7.8,12.0,50,0.00,,,0.00,VWS V14.01,2013-01-07 16:57:00,
2013-01-07 19:02:00,45.1,27.5,29.94,NNW,338,12.9,12.9,50,0.00,,,0.00,VWS V14.01,2013-01-07 17:02:00,
2013-01-07 19:07:00,45.1,28.0,29.95,North,0,4.4,7.6,51,0.00,,,0.00,VWS V14.01,2013-01-07 17:07:00,
2013-01-07 19:12:00,45.1,28.0,29.95,NW,315,11.8,11.8,51,0.00,,,0.00,VWS V14.01,2013-01-07 17:12:00,
2013-01-07 19:17:00,45.1,28.0,29.95,North,0,11.1,11.1,51,0.00,,,0.00,VWS V14.01,2013-01-07 17:17:00,
2013-01-07 19:22:00,45.3,28.2,29.96,North,0,13.6,13.6,51,0.00,,,0.00,VWS V14.01,2013-01-07 17:22:00,
2013-01-07 19:27:00,45.3,28.7,29.96,North,0,10.5,10.5,52,0.00,,,0.00,VWS V14.01,2013-01-07 17:27:00,
2013-01-07 19:32:00,45.1,29.0,29.96,NW,315,8.2,8.2,53,0.00,,,0.00,VWS V14.01,2013-01-07 17:32:00,
2013-01-07 19:37:00,45.1,29.4,29.96,NNW,338,14.3,14.3,54,0.00,,,0.00,VWS V14.01,2013-01-07 17:37:00,
2013-01-07 19:42:00,45.1,29.4,29.97,NNE,22,0.0,0.0,54,0.00,,,0.00,VWS V14.01,2013-01-07 17:42:00,
2013-01-07 19:47:00,45.0,29.8,29.97,NNW,338,1.1,4.6,55,0.00,,,0.00,VWS V14.01,2013-01-07 17:47:00,
2013-01-07 19:52:00,44.8,29.6,29.97,North,0,3.8,3.8,55,0.00,,,0.00,VWS V14.01,2013-01-07 17:52:00,
2013-01-07 19:57:00,44.8,29.1,29.97,NNW,338,15.2,15.2,54,0.00,,,0.00,VWS V14.01,2013-01-07 17:57:00,
2013-01-07 20:02:00,44.8,29.1,29.97,NNW,338,12.7,13.1,54,0.00,,,0.00,VWS V14.01,2013-01-07 18:02:00,
2013-01-07 20:08:00,44.6,29.0,29.97,NNW,338,2.4,2.4,54,0.00,,,0.00,VWS V14.01,2013-01-07 18:08:00,
2013-01-07 20:13:00,44.4,28.8,29.97,NNW,338,4.0,4.0,54,0.00,,,0.00,VWS V14.01,2013-01-07 18:13:00,
2013-01-07 20:18:00,44.2,28.6,29.97,NNE,22,7.3,7.3,54,0.00,,,0.00,VWS V14.01,2013-01-07 18:18:00,
2013-01-07 20:23:00,44.2,28.6,29.97,North,0,9.6,9.6,54,0.00,,,0.00,VWS V14.01,2013-01-07 18:23:00,
2013-01-07 20:28:00,44.2,28.1,29.97,NNE,22,10.0,10.0,53,0.00,,,0.00,VWS V14.01,2013-01-07 18:28:00,
2013-01-07 20:33:00,43.9,27.9,29.97,North,0,13.4,13.4,53,0.00,,,0.00,VWS V14.01,2013-01-07 18:33:00,
2013-01-07 20:38:00,43.7,27.7,29.98,NNW,338,8.0,8.0,53,0.00,,,0.00,VWS V14.01,2013-01-07 18:38:00,
2013-01-07 20:43:00,43.7,26.7,29.98,NNE,22,16.7,16.7,51,0.00,,,0.00,VWS V14.01,2013-01-07 18:43:00,
2013-01-07 20:48:00,43.9,26.0,29.98,North,0,11.4,14.7,49,0.00,,,0.00,VWS V14.01,2013-01-07 18:48:00,
2013-01-07 20:53:00,43.7,25.8,29.98,NW,315,8.5,8.7,49,0.00,,,0.00,VWS V14.01,2013-01-07 18:53:00,
2013-01-07 20:58:00,43.7,25.8,29.99,NW,315,13.6,16.1,49,0.00,,,0.00,VWS V14.01,2013-01-07 18:58:00,
2013-01-07 21:03:00,43.7,25.8,29.98,North,0,12.0,14.9,49,0.00,,,0.00,VWS V14.01,2013-01-07 19:03:00,
2013-01-07 21:08:00,43.5,25.1,29.98,NNW,338,12.7,12.7,48,0.00,,,0.00,VWS V14.01,2013-01-07 19:08:00,
2013-01-07 21:13:00,43.3,23.4,29.98,WNW,292,11.6,11.6,45,0.00,,,0.00,VWS V14.01,2013-01-07 19:13:00,
2013-01-07 21:18:00,43.3,22.8,29.98,NW,315,9.8,9.8,44,0.00,,,0.00,VWS V14.01,2013-01-07 19:18:00,
2013-01-07 21:23:00,43.5,23.0,29.99,WNW,292,1.3,8.0,44,0.00,,,0.00,VWS V14.01,2013-01-07 19:23:00,
2013-01-07 21:28:00,43.5,22.5,29.99,West,270,0.0,0.0,43,0.00,,,0.00,VWS V14.01,2013-01-07 19:28:00,
2013-01-07 21:33:00,43.7,22.1,29.99,NW,315,4.6,4.6,42,0.00,,,0.00,VWS V14.01,2013-01-07 19:33:00,
2013-01-07 21:38:00,43.5,21.9,29.99,WNW,292,4.6,12.5,42,0.00,,,0.00,VWS V14.01,2013-01-07 19:38:00,
2013-01-07 21:43:00,43.5,21.3,29.99,NNW,338,5.5,10.2,41,0.00,,,0.00,VWS V14.01,2013-01-07 19:43:00,
2013-01-07 21:49:00,43.5,20.8,29.99,NNW,338,5.8,5.8,40,0.00,,,0.00,VWS V14.01,2013-01-07 19:49:00,
2013-01-07 21:54:00,43.3,20.6,29.99,NNW,338,9.6,9.6,40,0.00,,,0.00,VWS V14.01,2013-01-07 19:54:00,
2013-01-07 21:59:00,43.5,19.6,29.99,NNW,338,18.5,18.5,38,0.00,,,0.00,VWS V14.01,2013-01-07 19:59:00,
2013-01-07 22:04:00,43.5,20.2,29.99,North,0,0.4,0.4,39,0.00,,,0.00,VWS V14.01,2013-01-07 20:04:00,
2013-01-07 22:09:00,43.3,19.4,29.99,NNW,338,7.3,8.9,38,0.00,,,0.00,VWS V14.01,2013-01-07 20:09:00,
2013-01-07 22:14:00,43.3,19.4,29.99,NNW,338,15.6,18.5,38,0.00,,,0.00,VWS V14.01,2013-01-07 20:14:00,
2013-01-07 22:19:00,43.2,19.9,29.99,NW,315,11.4,11.4,39,0.00,,,0.00,VWS V14.01,2013-01-07 20:19:00,
2013-01-07 22:21:00,43.2,19.9,29.99,NW,315,14.9,14.9,39,0.00,,,0.00,VWS V14.01,2013-01-07 20:21:00,
2013-01-07 22:26:00,43.0,20.3,30.00,NW,315,11.6,11.6,40,0.00,,,0.00,VWS V14.01,2013-01-07 20:26:00,
2013-01-07 22:31:00,42.8,20.7,30.00,NW,315,4.4,6.4,41,0.00,,,0.00,VWS V14.01,2013-01-07 20:31:00,
2013-01-07 22:36:00,42.8,21.3,30.00,North,0,2.0,4.6,42,0.00,,,0.00,VWS V14.01,2013-01-07 20:36:00,
2013-01-07 22:41:00,42.8,21.3,30.00,NE,45,11.6,11.6,42,0.00,,,0.00,VWS V14.01,2013-01-07 20:41:00,
2013-01-07 22:46:00,42.8,21.3,30.01,North,0,14.3,14.3,42,0.00,,,0.00,VWS V14.01,2013-01-07 20:46:00,
2013-01-07 22:51:00,42.8,21.3,30.01,NNW,338,12.7,12.7,42,0.00,,,0.00,VWS V14.01,2013-01-07 20:51:00,
2013-01-07 22:56:00,42.4,21.5,30.01,North,0,5.5,5.5,43,0.00,,,0.00,VWS V14.01,2013-01-07 20:56:00,
2013-01-07 23:01:00,42.4,22.0,30.02,NNW,338,6.4,12.3,44,0.00,,,0.00,VWS V14.01,2013-01-07 21:01:00,
2013-01-07 23:06:00,42.4,22.0,30.02,NNW,338,11.8,13.1,44,0.00,,,0.00,VWS V14.01,2013-01-07 21:06:00,
2013-01-07 23:11:00,42.4,22.5,30.02,NNW,338,9.6,17.6,45,0.00,,,0.00,VWS V14.01,2013-01-07 21:11:00,
2013-01-07 23:17:00,42.4,22.5,30.01,NW,315,8.2,8.2,45,0.00,,,0.00,VWS V14.01,2013-01-07 21:17:00,
2013-01-07 23:22:00,42.3,23.0,30.01,NW,315,5.1,5.1,46,0.00,,,0.00,VWS V14.01,2013-01-07 21:22:00,
2013-01-07 23:27:00,42.1,23.3,30.01,North,0,5.5,5.5,47,0.00,,,0.00,VWS V14.01,2013-01-07 21:27:00,
2013-01-07 23:32:00,42.1,23.3,30.02,North,0,0.2,0.2,47,0.00,,,0.00,VWS V14.01,2013-01-07 21:32:00,
2013-01-07 23:37:00,41.9,24.6,30.02,NNE,22,10.2,10.2,50,0.00,,,0.00,VWS V14.01,2013-01-07 21:37:00,
2013-01-07 23:42:00,41.7,25.4,30.02,North,0,5.5,5.5,52,0.00,,,0.00,VWS V14.01,2013-01-07 21:42:00,
2013-01-07 23:47:00,41.5,24.7,30.02,NNE,22,6.7,9.6,51,0.00,,,0.00,VWS V14.01,2013-01-07 21:47:00,
2013-01-07 23:52:00,41.5,23.7,30.02,NE,45,2.0,2.0,49,0.00,,,0.00,VWS V14.01,2013-01-07 21:52:00,
2013-01-07 23:57:00,41.5,23.7,30.02,North,0,10.0,10.0,49,0.00,,,0.00,VWS V14.01,2013-01-07 21:57:00,